�������l�o���
Date,Time,MP-1(��Sv/h),MP-2(��Sv/h),MP-3(��Sv/h),MP-4(��Sv/h),MP-5(��Sv/h),MP-6(��Sv/h),MP-7(��Sv/h),MP-8(��Sv/h),����,����(m/s),���J
2023/07/14,00:00,0.534,0.813,0.496,0.976,0.715,0.327,0.568,0.534,��,5.5,�L
2023/07/14,00:10,0.532,0.814,0.497,0.977,0.716,0.327,0.568,0.533,��,6.2,�L
2023/07/14,00:20,0.533,0.814,0.496,0.977,0.715,0.326,0.567,0.534,��쐼,4.6,��
2023/07/14,00:30,0.532,0.815,0.496,0.976,0.717,0.327,0.569,0.534,��쐼,4.6,�L
2023/07/14,00:40,0.535,0.814,0.497,0.976,0.717,0.326,0.569,0.534,��쐼,3.8,�L
2023/07/14,00:50,0.531,0.814,0.498,0.977,0.716,0.326,0.567,0.534,��쐼,3.6,��
2023/07/14,01:00,0.532,0.812,0.496,0.976,0.715,0.327,0.569,0.533,��쐼,3.1,�L
2023/07/14,01:10,0.532,0.813,0.498,0.976,0.716,0.327,0.568,0.534,��쐼,4.0,�L
2023/07/14,01:20,0.532,0.813,0.498,0.975,0.715,0.325,0.568,0.534,��쐼,4.0,�L
2023/07/14,01:30,0.533,0.812,0.498,0.978,0.715,0.326,0.566,0.534,��,4.4,�L
2023/07/14,01:40,0.533,0.814,0.497,0.977,0.717,0.327,0.567,0.533,��,5.9,��
2023/07/14,01:50,0.532,0.814,0.497,0.977,0.716,0.326,0.567,0.533,��쐼,5.4,��
2023/07/14,02:00,0.532,0.813,0.496,0.975,0.715,0.325,0.568,0.534,��쐼,4.4,��
2023/07/14,02:10,0.532,0.813,0.495,0.978,0.716,0.326,0.568,0.534,��쐼,3.6,��
2023/07/14,02:20,0.534,0.812,0.495,0.977,0.714,0.325,0.568,0.533,�쐼,3.4,��
2023/07/14,02:30,0.533,0.813,0.495,0.975,0.716,0.326,0.567,0.533,�쐼,3.1,��
2023/07/14,02:40,0.532,0.811,0.496,0.976,0.715,0.324,0.567,0.535,�쐼,2.8,��
2023/07/14,02:50,0.532,0.810,0.496,0.976,0.715,0.327,0.567,0.534,�쐼,1.7,��
2023/07/14,03:00,0.531,0.811,0.496,0.974,0.715,0.325,0.566,0.533,���쐼,2.0,��
2023/07/14,03:10,0.531,0.810,0.494,0.978,0.715,0.324,0.567,0.535,��,2.9,��
2023/07/14,03:20,0.534,0.811,0.496,0.977,0.713,0.324,0.567,0.535,��,2.3,��
2023/07/14,03:30,0.532,0.810,0.496,0.977,0.714,0.326,0.568,0.536,�k��,1.7,��
2023/07/14,03:40,0.533,0.812,0.495,0.977,0.717,0.325,0.567,0.535,�k�k��,1.4,��
2023/07/14,03:50,0.531,0.812,0.497,0.978,0.714,0.326,0.567,0.532,�k�k��,1.2,��
2023/07/14,04:00,0.532,0.811,0.495,0.976,0.714,0.326,0.570,0.534,�k�k��,1.1,�L
2023/07/14,04:10,0.531,0.812,0.498,0.976,0.715,0.325,0.568,0.534,���k��,1.5,��
2023/07/14,04:20,0.531,0.812,0.497,0.978,0.715,0.326,0.567,0.535,���쓌,0.9,��
2023/07/14,04:30,0.533,0.812,0.496,0.978,0.713,0.325,0.569,0.533,-,CALM,��
2023/07/14,04:40,0.534,0.810,0.496,0.976,0.715,0.325,0.568,0.534,��쓌,0.9,�L
2023/07/14,04:50,0.534,0.812,0.495,0.977,0.714,0.326,0.567,0.534,��쐼,0.9,�L
2023/07/14,05:00,0.530,0.812,0.496,0.977,0.715,0.326,0.570,0.534,��,0.9,��
2023/07/14,05:10,0.533,0.810,0.496,0.977,0.715,0.325,0.569,0.535,��,0.9,�L
2023/07/14,05:20,0.531,0.811,0.496,0.976,0.714,0.326,0.569,0.535,�쐼,1.2,�L
2023/07/14,05:30,0.531,0.813,0.496,0.979,0.716,0.325,0.568,0.536,��쐼,1.2,�L
2023/07/14,05:40,0.532,0.811,0.496,0.978,0.716,0.327,0.568,0.534,��,1.5,��
2023/07/14,05:50,0.533,0.811,0.496,0.978,0.715,0.327,0.567,0.534,��,1.5,��
2023/07/14,06:00,0.530,0.810,0.496,0.977,0.716,0.326,0.569,0.534,���k��,0.6,�L
2023/07/14,06:10,0.531,0.812,0.497,0.978,0.715,0.327,0.567,0.535,-,CALM,�L
2023/07/14,06:20,0.531,0.812,0.496,0.977,0.715,0.325,0.569,0.535,�k�k��,0.6,��
2023/07/14,06:30,0.533,0.812,0.496,0.976,0.716,0.327,0.569,0.534,-,CALM,��
2023/07/14,06:40,0.533,0.814,0.495,0.977,0.716,0.326,0.569,0.534,-,CALM,��
2023/07/14,06:50,0.530,0.811,0.496,0.978,0.716,0.326,0.570,0.535,���k��,1.2,��
2023/07/14,07:00,0.531,0.813,0.496,0.976,0.713,0.326,0.569,0.534,�k��,1.1,��
2023/07/14,07:10,0.531,0.812,0.495,0.975,0.716,0.325,0.569,0.535,���k��,1.2,��
2023/07/14,07:20,0.531,0.814,0.496,0.976,0.713,0.326,0.569,0.533,�k��,1.5,��
2023/07/14,07:30,0.531,0.812,0.495,0.977,0.715,0.325,0.569,0.532,���k��,0.9,��
2023/07/14,07:40,0.530,0.812,0.496,0.977,0.715,0.325,0.568,0.533,��,0.6,��
2023/07/14,07:50,0.531,0.813,0.493,0.977,0.716,0.324,0.568,0.535,��쓌,0.6,��
2023/07/14,08:00,0.532,0.813,0.496,0.977,0.714,0.324,0.568,0.535,��쓌,1.7,��
2023/07/14,08:10,0.530,0.813,0.496,0.976,0.716,0.325,0.568,0.534,��,1.5,��
2023/07/14,08:20,0.532,0.813,0.497,0.975,0.714,0.325,0.569,0.535,��쓌,1.9,��
2023/07/14,08:30,0.532,0.812,0.496,0.976,0.715,0.324,0.569,0.533,��쓌,1.7,��
2023/07/14,08:40,0.532,0.811,0.496,0.976,0.713,0.325,0.568,0.534,��쓌,1.7,��
2023/07/14,08:50,0.533,0.811,0.495,0.977,0.716,0.325,0.570,0.535,�쓌,1.7,��
2023/07/14,09:00,0.532,0.811,0.496,0.980,0.714,0.325,0.570,0.535,��쓌,2.2,��
2023/07/14,09:10,0.533,0.810,0.497,0.976,0.716,0.324,0.570,0.533,�쓌,2.2,��
2023/07/14,09:20,0.534,0.813,0.496,0.979,0.716,0.326,0.570,0.535,�쓌,2.3,��
2023/07/14,09:30,0.531,0.811,0.496,0.976,0.716,0.324,0.570,0.535,�쓌,2.6,��
2023/07/14,09:40,0.532,0.811,0.495,0.977,0.718,0.325,0.571,0.535,�쓌,2.3,��
2023/07/14,09:50,0.533,0.812,0.496,0.975,0.717,0.326,0.569,0.536,��쓌,3.4,��
2023/07/14,10:00,0.534,0.812,0.495,0.977,0.717,0.327,0.571,0.534,��쓌,3.5,��
2023/07/14,10:10,0.535,0.814,0.495,0.979,0.718,0.325,0.569,0.535,�쓌,3.7,��
2023/07/14,10:20,0.535,0.813,0.494,0.976,0.718,0.327,0.569,0.533,��쓌,4.7,��
2023/07/14,10:30,0.535,0.812,0.494,0.980,0.720,0.326,0.570,0.533,��쓌,5.3,��
2023/07/14,10:40,0.533,0.813,0.496,0.979,0.718,0.327,0.568,0.534,��쓌,4.3,��
2023/07/14,10:50,0.534,0.813,0.496,0.978,0.717,0.326,0.568,0.536,��쓌,6.1,��
2023/07/14,11:00,0.537,0.814,0.497,0.979,0.717,0.325,0.567,0.534,��쓌,5.8,��
2023/07/14,11:10,0.534,0.814,0.494,0.979,0.718,0.325,0.570,0.533,��쓌,4.0,��
2023/07/14,11:20,0.535,0.814,0.495,0.980,0.719,0.325,0.568,0.533,��쓌,3.8,��
2023/07/14,11:30,0.536,0.816,0.496,0.979,0.718,0.325,0.566,0.532,��쓌,5.5,��
2023/07/14,11:40,0.537,0.813,0.496,0.977,0.719,0.326,0.569,0.533,��쓌,6.0,��
2023/07/14,11:50,0.536,0.816,0.495,0.978,0.719,0.325,0.570,0.532,��,7.1,��
2023/07/14,12:00,0.535,0.815,0.496,0.977,0.720,0.326,0.568,0.533,��,5.8,�L
2023/07/14,12:10,0.537,0.814,0.496,0.979,0.718,0.326,0.568,0.533,��,5.2,�L
2023/07/14,12:20,0.536,0.813,0.497,0.977,0.718,0.327,0.569,0.533,��,3.9,�L
2023/07/14,12:30,0.536,0.815,0.497,0.979,0.719,0.327,0.567,0.533,��,3.8,�L
2023/07/14,12:40,0.534,0.816,0.497,0.979,0.720,0.328,0.570,0.534,��,3.4,�L
2023/07/14,12:50,0.538,0.817,0.497,0.978,0.718,0.327,0.569,0.533,��쐼,3.4,�L
2023/07/14,13:00,0.537,0.815,0.498,0.977,0.722,0.327,0.571,0.534,�쐼,3.8,�L
2023/07/14,13:10,0.539,0.816,0.498,0.978,0.720,0.328,0.572,0.536,���쐼,3.2,�L
2023/07/14,13:20,0.537,0.816,0.499,0.982,0.717,0.329,0.571,0.536,�쐼,2.6,�L
2023/07/14,13:30,0.539,0.815,0.498,0.978,0.721,0.329,0.570,0.536,�쐼,2.9,�L
2023/07/14,13:40,0.536,0.815,0.499,0.980,0.720,0.330,0.570,0.535,��쐼,2.3,�L
2023/07/14,13:50,0.537,0.813,0.497,0.981,0.719,0.329,0.570,0.535,��쐼,3.1,�L
2023/07/14,14:00,0.537,0.813,0.499,0.983,0.720,0.329,0.570,0.532,��,3.6,�L
2023/07/14,14:10,0.537,0.814,0.498,0.981,0.718,0.329,0.567,0.535,��,2.2,�L
2023/07/14,14:20,0.537,0.812,0.498,0.981,0.717,0.330,0.569,0.534,��,2.0,�L
2023/07/14,14:30,0.536,0.812,0.498,0.980,0.718,0.330,0.569,0.534,��,3.5,�L
2023/07/14,14:40,0.537,0.811,0.498,0.982,0.718,0.330,0.570,0.532,��쓌,2.8,�L
2023/07/14,14:50,0.535,0.812,0.497,0.979,0.715,0.329,0.569,0.532,��,3.4,�L
2023/07/14,15:00,0.534,0.809,0.497,0.977,0.714,0.330,0.569,0.533,��쓌,3.1,�L
2023/07/14,15:10,0.533,0.809,0.496,0.979,0.714,0.331,0.568,0.533,��,3.4,�L
2023/07/14,15:20,0.532,0.809,0.495,0.974,0.713,0.328,0.567,0.535,��,3.8,�L
2023/07/14,15:30,0.531,0.808,0.495,0.976,0.712,0.328,0.567,0.533,��,4.0,�L
2023/07/14,15:40,0.532,0.806,0.493,0.976,0.713,0.328,0.567,0.533,��,4.2,�L
2023/07/14,15:50,0.533,0.806,0.493,0.976,0.711,0.327,0.568,0.534,��,4.6,�L
2023/07/14,16:00,0.532,0.806,0.493,0.975,0.711,0.327,0.569,0.534,��쐼,3.4,�L
2023/07/14,16:10,0.532,0.806,0.493,0.974,0.709,0.325,0.566,0.533,��,4.2,�L
2023/07/14,16:20,0.531,0.805,0.491,0.974,0.710,0.326,0.565,0.533,��,3.6,�L
2023/07/14,16:30,0.531,0.804,0.491,0.973,0.708,0.325,0.567,0.532,��,3.4,�L
2023/07/14,16:40,0.531,0.806,0.493,0.974,0.712,0.326,0.567,0.533,��,2.0,�L
2023/07/14,16:50,0.531,0.806,0.491,0.972,0.709,0.324,0.566,0.530,��,2.5,��
2023/07/14,17:00,0.528,0.804,0.490,0.974,0.708,0.325,0.565,0.532,��,2.6,��
2023/07/14,17:10,0.529,0.802,0.488,0.972,0.709,0.323,0.566,0.531,��,3.0,�L
2023/07/14,17:20,0.529,0.803,0.489,0.972,0.708,0.325,0.565,0.532,��,3.6,�L
2023/07/14,17:30,0.528,0.805,0.491,0.970,0.708,0.324,0.566,0.531,��쐼,3.5,��
2023/07/14,17:40,0.528,0.805,0.488,0.975,0.708,0.323,0.567,0.532,��쐼,3.5,��
2023/07/14,17:50,0.529,0.804,0.489,0.972,0.709,0.324,0.566,0.532,��,3.2,��
2023/07/14,18:00,0.528,0.804,0.490,0.972,0.707,0.324,0.566,0.531,��쐼,2.3,��
2023/07/14,18:10,0.530,0.806,0.490,0.973,0.708,0.323,0.565,0.532,��,1.5,��
2023/07/14,18:20,0.525,0.802,0.489,0.971,0.708,0.323,0.567,0.531,��쐼,1.5,��
2023/07/14,18:30,0.527,0.804,0.490,0.970,0.708,0.324,0.566,0.531,��쐼,1.5,��
2023/07/14,18:40,0.528,0.801,0.490,0.972,0.708,0.324,0.566,0.531,��쐼,2.8,��
2023/07/14,18:50,0.527,0.805,0.489,0.972,0.708,0.325,0.566,0.532,�쐼,3.0,��
2023/07/14,19:00,0.530,0.802,0.489,0.971,0.707,0.325,0.567,0.530,��쐼,2.6,��
2023/07/14,19:10,0.529,0.802,0.491,0.971,0.706,0.324,0.566,0.532,��쐼,2.6,��
2023/07/14,19:20,0.529,0.802,0.491,0.970,0.709,0.323,0.564,0.532,��,3.1,��
2023/07/14,19:30,0.527,0.802,0.489,0.972,0.707,0.325,0.565,0.531,��쐼,5.3,��
2023/07/14,19:40,0.528,0.803,0.489,0.972,0.709,0.325,0.565,0.531,��쐼,6.2,��
2023/07/14,19:50,0.527,0.805,0.490,0.972,0.707,0.325,0.567,0.532,��쐼,6.9,��
2023/07/14,20:00,0.527,0.803,0.488,0.974,0.707,0.324,0.566,0.530,�쐼,5.8,��
2023/07/14,20:10,0.527,0.801,0.489,0.973,0.708,0.324,0.566,0.531,�쐼,4.9,��
2023/07/14,20:20,0.526,0.803,0.490,0.972,0.708,0.326,0.565,0.531,�쐼,5.1,��
2023/07/14,20:30,0.527,0.804,0.490,0.974,0.709,0.323,0.567,0.533,�쐼,5.1,��
2023/07/14,20:40,0.527,0.804,0.489,0.974,0.709,0.324,0.567,0.532,�쐼,4.3,��
2023/07/14,20:50,0.526,0.803,0.491,0.972,0.707,0.323,0.566,0.531,��쐼,4.9,��
2023/07/14,21:00,0.529,0.802,0.489,0.975,0.708,0.325,0.565,0.532,��쐼,4.7,��
2023/07/14,21:10,0.528,0.805,0.490,0.972,0.708,0.323,0.567,0.532,��쐼,4.7,��
2023/07/14,21:20,0.529,0.804,0.489,0.972,0.708,0.325,0.567,0.534,��쐼,5.6,��
2023/07/14,21:30,0.528,0.805,0.490,0.976,0.709,0.323,0.567,0.531,��쐼,5.5,��
2023/07/14,21:40,0.527,0.804,0.489,0.972,0.709,0.325,0.566,0.531,��쐼,4.9,��
2023/07/14,21:50,0.525,0.802,0.490,0.973,0.708,0.324,0.566,0.534,��쐼,6.0,��
2023/07/14,22:00,0.526,0.803,0.491,0.972,0.710,0.323,0.566,0.531,��쐼,5.8,��
2023/07/14,22:10,0.527,0.804,0.489,0.973,0.709,0.323,0.566,0.532,�쐼,6.0,��
2023/07/14,22:20,0.526,0.802,0.491,0.972,0.709,0.323,0.566,0.530,��쐼,6.0,��
2023/07/14,22:30,0.526,0.805,0.489,0.974,0.708,0.324,0.566,0.531,�쐼,4.8,��
2023/07/14,22:40,0.528,0.803,0.490,0.973,0.707,0.324,0.565,0.532,��쐼,5.0,��
2023/07/14,22:50,0.526,0.804,0.490,0.973,0.709,0.323,0.566,0.531,��쐼,5.1,��
2023/07/14,23:00,0.527,0.802,0.489,0.973,0.709,0.324,0.565,0.532,��쐼,4.4,��
2023/07/14,23:10,0.526,0.802,0.490,0.976,0.710,0.324,0.566,0.532,��쐼,3.4,��
2023/07/14,23:20,0.526,0.804,0.489,0.973,0.709,0.325,0.566,0.531,��쐼,3.0,��
2023/07/14,23:30,0.526,0.804,0.492,0.973,0.709,0.324,0.566,0.533,��쐼,2.9,�L
2023/07/14,23:40,0.527,0.803,0.490,0.973,0.710,0.323,0.565,0.533,��,3.1,��
2023/07/14,23:50,0.527,0.804,0.490,0.970,0.708,0.325,0.566,0.532,��,3.7,��
